RH
36 36 35 36 33 29 27 34 35 38 41 41 42 46 48 50 49 50 55 72 80 60 57 54 48 82 84 76 67 80 93 96 81 66 56 35 35 31 32 27 30 61 54 54 95
37 38 36 36 35 32 33 39 41 42 43 44 46 48 52 55 54 67 69 62 60 52 45 46 49 74 75 71 73 82 94 81 64 54 57 50 47 45 36 32 29 63 69 61 95
37 37 37 36 35 36 37 42 44 44 45 46 50 49 52 54 67 84 74 69 73 59 53 51 55 84 81 73 67 76 84 66 62 63 63 62 60 52 40 42 41 33 86 86 100
37 38 37 37 37 39 41 44 45 45 46 48 53 53 56 58 64 78 75 78 72 58 55 62 74 82 87 87 67 78 68 68 64 62 64 65 59 59 51 45 39 35 35 100 100
37 37 38 38 39 40 41 43 46 47 50 53 57 57 58 63 60 69 78 78 70 62 66 77 90 80 82 74 72 85 68 64 62 62 60 60 63 63 59 48 38 34 52 98 94
34 35 34 33 32 33 35 36 43 49 54 57 57 63 73 83 68 70 68 64 68 71 76 79 77 84 90 75 74 68 72 71 63 61 64 63 62 59 51 43 40 40 88 99 100
32 32 29 27 28 31 37 42 46 50 54 58 61 74 81 59 68 67 70 70 71 76 84 73 82 87 83 79 65 74 88 75 66 68 68 60 64 61 51 43 38 38 74 100 100
30 27 24 23 24 32 44 46 48 51 55 57 63 78 69 62 67 71 75 75 75 78 86 91 99 98 98 80 79 83 86 94 60 61 61 63 74 49 48 47 41 54 92 98 100
25 24 22 21 24 40 45 42 46 52 54 60 70 86 74 66 70 72 72 73 76 78 82 90 100 94 84 93 99 91 95 97 81 57 63 76 71 49 47 44 45 64 99 100 100
25 21 19 21 32 47 44 45 63 65 66 75 86 95 68 65 68 71 65 80 81 88 80 93 96 91 94 96 96 94 97 85 86 54 66 72 72 54 47 47 48 46 91 100 98
17 18 19 24 44 48 48 52 57 69 78 62 72 71 69 64 67 61 71 84 81 93 86 91 98 98 87 86 84 99 100 97 77 58 66 74 73 61 51 45 47 43 68 99 96
18 16 19 30 51 53 57 59 60 65 76 54 56 68 69 68 73 64 73 80 83 88 82 94 96 76 76 80 88 91 99 93 72 58 62 64 72 59 51 52 45 44 65 91 90
23 18 22 38 54 59 68 64 60 65 89 64 67 68 67 71 73 67 72 80 92 92 80 98 78 75 73 86 93 90 92 85 82 62 68 73 78 64 45 52 49 47 50 83 81
24 21 25 49 62 63 77 68 60 64 90 67 64 68 67 72 84 62 66 74 90 91 87 95 80 92 97 100 98 98 75 86 87 93 93 72 85 67 50 52 50 43 58 80 76
26 24 30 54 58 72 69 63 63 89 63 54 70 70 66 73 61 55 63 84 95 82 90 85 89 93 100 96 97 96 74 97 97 98 98 90 95 70 60 60 52 61 70 78 72
30 29 38 59 59 66 66 63 79 79 57 70 69 72 70 75 70 56 70 80 78 85 80 87 87 94 95 83 79 92 98 100 100 99 97 78 89 74 69 44 46 64 73 75 70
31 36 45 65 73 69 63 82 86 73 50 62 71 69 72 74 64 58 71 88 90 97 86 78 84 81 85 92 83 89 100 97 97 98 93 84 97 72 53 42 49 66 74 73 68
33 38 44 66 71 67 74 78 72 58 69 52 65 70 78 63 65 58 65 80 70 80 97 89 87 88 85 88 75 90 90 98 96 96 80 68 93 60 46 41 41 56 61 69 69
38 40 52 73 75 71 83 92 66 76 55 58 66 74 74 66 68 64 69 70 56 76 74 92 90 58 75 65 52 58 88 80 86 80 94 78 54 42 56 48 59 59 70 73 72
48 59 71 82 78 84 88 77 77 61 52 60 78 67 64 58 74 73 61 50 52 51 50 63 93 60 53 51 51 54 58 83 94 96 92 82 62 69 69 58 63 71 72 72 71
74 81 92 97 80 92 94 86 73 52 48 65 71 70 65 64 60 61 58 48 52 55 57 60 65 69 56 56 57 56 72 78 85 100 97 95 75 43 58 64 64 61 64 68 67
89 97 97 100 98 94 98 82 54 51 53 58 61 66 69 64 65 60 58 51 53 55 66 56 62 81 62 52 48 52 55 67 90 96 98 98 79 40 56 59 64 56 63 63 59
98 97 100 99 99 97 86 66 55 57 62 65 68 65 61 60 69 61 56 46 54 55 59 56 69 88 70 58 51 54 51 44 75 91 92 98 52 48 57 63 70 77 66 60 55
90 98 100 100 98 98 85 64 64 54 56 57 59 58 60 65 62 66 58 49 56 57 58 58 72 78 89 70 64 72 58 49 59 90 92 68 51 44 56 68 85 90 77 61 54
91 90 88 97 94 96 77 58 57 60 60 56 59 62 61 69 60 63 56 54 50 58 58 59 78 69 68 67 67 68 61 56 50 58 65 53 49 41 53 66 76 78 71 66 62
74 75 89 81 76 97 86 78 66 57 63 64 67 54 57 73 60 62 58 59 62 58 62 62 75 71 79 58 54 59 56 52 53 47 61 49 41 49 60 65 76 74 66 67 68
65 76 58 59 72 86 80 75 59 52 43 44 57 60 54 53 46 50 55 56 60 61 65 65 73 81 83 66 59 54 50 51 44 41 43 40 32 46 62 65 74 70 64 64 65
Wind_Speed
6 7 8 8 8 8 7 7 10 12 14 17 19 19 18 17 15 11 6 4 8 13 15 16 8 5 4 3 7 3 3 4 5 5 3 9 4 3 15 13 21 10 11 10 39
5 6 7 8 9 9 8 8 10 12 15 18 19 18 16 15 15 7 4 5 10 13 13 12 6 6 3 4 5 6 4 7 6 3 3 14 9 20 12 19 15 10 11 16 42
6 7 7 8 8 8 9 10 12 14 16 18 19 16 14 14 9 3 5 7 13 14 14 10 7 5 4 8 11 6 11 4 6 12 14 11 18 16 13 3 8 18 11 37 44
6 7 8 9 10 11 12 13 14 16 17 18 17 14 11 10 3 3 9 11 12 15 14 8 4 2 2 4 9 11 23 11 10 13 15 9 19 12 15 24 25 29 24 33 48
7 8 9 10 11 12 13 14 14 15 15 15 14 13 11 7 6 6 8 11 15 17 11 6 6 6 5 5 7 9 19 14 20 19 22 21 21 13 23 30 25 28 17 36 47
9 10 11 12 12 13 14 14 13 13 13 13 11 9 8 5 5 7 8 11 15 18 10 8 7 9 14 13 10 10 15 16 14 18 17 15 20 10 9 19 26 21 20 37 38
11 12 12 12 13 13 14 14 12 12 12 11 7 7 9 6 7 8 11 13 19 18 19 20 14 13 6 8 18 19 14 13 17 9 6 7 16 17 23 16 18 23 23 30 35
12 13 13 13 13 13 13 12 10 10 10 7 4 5 7 4 6 10 11 16 18 18 21 20 20 17 17 12 8 4 3 7 5 12 11 7 18 20 12 14 17 21 27 27 33
13 13 13 12 12 11 11 11 9 6 4 3 3 4 7 4 7 11 17 20 16 17 10 9 8 8 9 8 4 6 7 7 8 9 3 9 10 18 15 10 7 17 26 27 30
13 12 12 10 9 9 9 8 4 2 1 1 3 6 4 4 15 18 16 11 15 10 5 1 3 3 4 5 9 3 6 6 6 1 8 10 16 19 19 15 13 16 27 32 31
11 11 9 8 7 7 6 3 2 1 5 7 4 10 16 12 16 9 10 11 6 4 2 2 3 8 13 13 11 3 6 7 4 6 5 7 15 20 14 17 14 21 24 30 37
9 9 7 5 4 3 5 3 3 5 7 8 12 18 15 13 8 10 8 3 2 5 4 3 11 11 9 9 11 13 15 17 13 11 9 12 18 20 9 10 20 20 22 30 32
7 6 5 3 2 2 1 4 3 4 2 5 5 7 6 6 5 10 5 3 3 3 7 8 5 2 11 11 12 14 17 13 15 5 7 5 15 17 14 21 22 22 22 36 41
8 5 4 3 2 1 0 4 3 2 4 5 3 3 3 3 6 8 8 4 2 5 6 8 6 13 13 11 13 18 16 18 18 10 7 11 8 8 8 16 12 20 23 37 38
7 5 5 7 3 2 2 2 0 0 4 3 2 3 4 5 11 5 9 6 6 6 4 5 9 10 6 9 11 12 13 18 18 17 8 9 6 6 9 12 13 11 27 31 39
6 5 8 7 5 3 1 1 1 5 4 4 2 3 3 5 5 4 7 10 9 5 9 15 2 3 4 9 11 8 6 13 11 6 7 14 11 6 8 22 19 14 26 34 38
7 6 11 9 5 4 4 3 4 4 1 3 4 2 4 3 4 4 4 4 3 4 4 6 4 4 6 6 5 5 4 3 2 3 4 6 12 12 9 7 10 11 26 36 43
7 7 12 10 7 7 6 4 2 4 4 2 2 2 5 2 5 3 4 4 5 4 3 5 7 5 5 6 3 5 3 2 4 2 3 7 5 7 4 9 24 29 37 39 41
7 8 10 10 9 9 4 3 6 6 3 0 6 3 3 3 4 2 5 4 4 7 3 3 6 4 6 6 2 2 2 5 4 3 1 4 5 5 2 4 5 14 26 31 36
10 8 7 11 10 10 2 5 5 5 4 3 3 5 3 3 2 3 3 3 2 4 3 4 6 4 5 1 5 4 4 2 1 4 4 4 2 4 4 6 9 13 23 29 34
13 6 8 10 12 5 3 6 5 8 7 5 4 4 4 4 4 3 5 2 2 4 2 3 3 7 3 1 2 1 2 1 2 3 3 3 4 2 4 8 13 16 30 34 36
12 3 10 15 5 4 3 6 5 5 9 4 3 6 5 4 4 3 4 4 6 2 4 2 3 4 9 5 2 2 3 3 1 5 2 3 4 3 8 6 7 10 19 31 37
13 6 12 18 4 4 6 5 7 5 6 6 5 7 4 3 4 4 4 4 4 2 3 2 2 4 9 5 4 2 5 1 4 1 2 2 5 5 6 6 6 17 22 27 32
10 4 6 14 9 3 3 5 5 7 5 6 4 5 3 4 6 5 3 3 5 4 2 1 2 4 4 7 3 6 5 5 2 2 5 8 8 5 2 6 7 17 23 26 30
11 6 11 6 8 9 3 3 5 5 6 9 2 6 6 3 3 5 3 5 4 3 2 2 4 3 7 9 7 8 8 6 3 5 4 9 7 5 4 6 8 23 26 29 28
11 7 9 6 4 12 5 5 8 4 7 5 5 4 5 6 7 8 3 3 5 4 2 1 4 4 6 5 2 6 9 7 5 7 8 9 7 3 4 11 13 20 26 28 26
20 12 7 7 6 6 5 6 8 7 6 6 8 4 4 8 11 13 10 8 6 2 2 2 1 3 5 5 8 5 6 7 5 6 3 3 4 3 2 6 14 21 25 27 27
Wind_Direction
345 343 340 337 335 333 332 333 337 345 345 342 339 336 337 336 337 333 346 358 331 323 313 309 294 258 254 253 243 260 258 229 235 174 246 284 298 272 316 309 328 277 238 231 171
322 325 326 325 332 336 328 325 328 330 333 334 335 335 336 336 339 7 64 30 358 346 338 331 308 249 249 244 237 204 226 230 203 204 267 294 302 318 316 317 318 299 251 190 174
317 319 316 314 317 319 318 322 322 320 321 326 330 332 335 337 343 41 37 342 339 343 340 327 294 290 278 250 218 225 241 206 286 310 305 304 304 299 312 334 321 324 286 170 176
304 303 308 312 316 318 315 313 312 311 315 317 324 330 337 335 340 316 320 322 328 334 335 319 299 264 265 241 238 262 257 263 275 269 296 295 297 296 278 280 289 306 278 192 178
299 304 306 310 313 314 312 310 306 309 311 314 321 328 337 321 277 299 318 316 324 330 331 322 292 262 227 245 246 248 267 279 268 276 275 282 279 281 279 288 292 303 238 200 184
295 299 304 308 312 313 311 310 312 310 308 309 316 321 324 289 301 312 317 321 327 326 313 305 265 262 296 264 261 274 295 288 275 265 272 259 278 294 260 280 287 290 231 198 195
294 297 301 308 311 316 321 320 315 301 299 302 306 304 295 298 328 320 315 320 316 314 301 294 278 246 287 264 264 276 279 289 261 251 250 251 274 259 270 271 279 268 239 208 199
288 292 300 305 312 320 323 318 309 300 298 293 291 285 270 312 311 303 298 306 309 308 292 283 271 266 251 260 289 297 242 257 276 211 237 172 260 264 254 282 274 258 222 210 198
285 289 296 306 314 321 326 322 312 301 286 280 267 271 285 309 308 306 305 307 309 314 312 287 248 233 242 239 250 215 268 247 288 225 210 187 262 264 244 228 285 251 218 206 196
282 285 297 305 313 326 337 332 327 286 216 251 205 290 266 313 311 307 308 308 320 324 325 27 194 256 212 214 242 228 241 250 251 286 217 233 250 266 250 264 270 289 222 203 195
289 285 291 300 312 332 350 346 344 277 255 247 251 270 293 313 304 307 303 304 334 293 271 228 240 224 228 226 239 260 266 262 283 292 308 239 247 258 265 219 246 266 238 201 196
295 287 287 293 311 345 360 43 334 306 310 268 264 266 281 299 301 306 283 283 291 289 264 216 249 241 225 214 221 241 257 261 267 253 262 267 263 264 261 229 231 240 239 205 193
295 279 273 267 288 339 38 11 329 316 300 290 265 272 277 279 272 284 250 231 232 264 296 247 241 324 229 239 230 236 246 255 246 269 259 271 272 259 252 229 230 234 243 206 199
290 259 235 219 216 294 235 333 319 288 57 280 268 268 276 264 274 249 260 229 249 269 279 267 285 261 250 238 225 243 231 253 247 238 246 181 275 244 212 225 206 224 214 197 192
281 238 205 199 219 202 297 308 276 328 32 254 226 267 256 215 297 262 229 194 231 242 242 275 263 256 252 253 230 255 266 239 241 231 239 203 249 269 177 218 206 200 199 191 190
268 228 199 198 203 187 195 141 141 42 270 322 220 257 276 216 247 267 204 221 262 267 231 253 168 232 233 264 258 250 240 247 240 208 230 221 216 262 200 198 186 186 181 185 186
256 226 200 196 182 183 159 133 28 131 308 263 248 208 255 255 280 220 206 214 225 316 314 303 224 254 211 272 232 242 279 301 339 189 230 188 198 251 305 173 174 173 174 184 190
248 218 200 199 190 175 161 68 117 232 221 254 198 237 245 209 253 276 279 278 239 182 303 321 325 205 172 218 255 207 193 277 315 322 290 127 234 255 263 193 192 184 184 185 188
224 197 193 198 190 176 171 87 215 213 221 252 319 213 282 250 196 308 235 235 235 181 200 320 270 286 186 223 186 333 272 190 276 221 339 201 263 301 328 99 141 187 171 185 185
193 180 187 186 184 176 112 234 227 213 167 126 204 190 268 268 195 175 263 226 266 214 165 266 288 257 295 145 247 203 317 309 345 301 291 288 196 233 279 206 179 163 183 186 186
180 160 179 180 173 192 203 227 242 235 191 164 207 270 258 276 225 248 261 279 239 282 260 252 218 290 340 238 274 270 284 73 174 264 301 325 288 258 265 219 195 192 177 178 187
176 137 179 177 160 221 219 206 207 205 210 205 197 220 225 275 267 264 243 231 211 241 295 264 267 278 257 261 243 250 278 175 154 308 286 299 282 318 268 210 195 158 164 174 191
167 141 178 175 197 218 265 258 214 184 206 179 223 207 185 251 298 235 256 267 241 265 233 308 283 316 339 359 4 5 310 207 88 124 298 335 289 357 33 56 125 131 148 169 183
170 149 160 198 236 239 236 243 229 211 220 195 224 213 222 248 222 270 291 270 244 241 242 111 267 219 223 243 286 298 303 316 162 81 302 267 298 330 7 108 108 118 143 162 168
193 200 174 180 227 212 214 269 204 190 220 201 245 213 184 266 273 234 237 316 285 296 235 185 260 253 260 258 254 251 271 299 279 248 211 274 318 309 224 160 135 135 149 153 156
182 177 172 188 182 175 200 243 213 226 166 231 198 204 179 213 218 269 240 213 252 329 277 228 264 345 288 284 303 272 269 257 261 250 260 294 302 16 71 129 128 138 150 157 165
206 193 185 183 155 144 206 219 223 181 229 219 193 182 241 248 261 263 255 255 251 258 299 296 262 352 276 326 321 304 248 205 224 244 196 284 292 85 91 141 156 159 168 172 175